Vorticity
6 3 1 -3 2 2 1 5 5 6 -9 4 11 8 -0 3 6 10 7 8 7 7 6 5 5 5 6 6 6 5 5 5 4 2 3 5 4 6
-2 7 5 5 6 9 4 9 9 14 20 12 7 8 9 9 6 5 6 6 7 7 6 7 7 7 6 5 5 5 4 4 6 8 7 6 6 8
-0 3 4 6 10 5 11 10 8 9 10 12 9 8 8 9 9 9 10 11 9 9 8 9 9 9 8 7 6 7 8 8 7 7 5 6 9 7
6 10 6 8 5 10 7 8 10 7 7 7 9 11 9 11 11 11 9 9 8 10 8 8 8 7 8 9 10 10 10 9 9 7 8 6 5 4
5 9 15 11 6 7 7 7 8 9 8 8 9 11 9 10 8 8 6 6 7 7 6 4 5 4 4 4 3 5 7 4 5 6 6 6 6 6
10 6 6 5 5 6 8 8 7 8 12 13 10 7 7 6 8 7 8 6 7 6 4 4 4 5 5 4 7 5 4 2 3 6 9 11 10 8
5 5 5 7 8 8 8 9 11 9 7 7 8 7 6 3 5 6 5 7 13 11 9 13 10 11 11 11 9 7 4 5 6 5 6 5 7 7
5 6 7 8 10 12 12 8 9 10 6 5 1 5 5 5 10 15 12 16 21 21 24 28 31 30 30 28 26 28 28 23 21 19 16 15 14 9
6 8 10 11 9 6 8 8 6 4 3 5 6 6 8 13 17 25 25 28 30 30 27 28 26 27 32 34 37 35 35 38 38 35 34 37 38 28
11 11 9 5 6 7 3 3 4 6 5 6 11 22 26 28 25 24 25 25 27 25 23 25 22 24 26 28 25 23 19 18 19 22 27 29 34 44
10 5 6 5 4 7 8 7 3 8 8 25 33 27 24 25 27 23 23 24 25 22 20 23 26 23 20 8 5 10 16 19 21 21 25 28 30 26
5 2 5 8 11 6 3 6 9 14 34 29 21 21 24 27 22 19 22 21 18 19 23 22 16 13 5 9 18 17 16 17 19 22 23 25 30 34
6 8 7 6 2 4 6 14 33 34 19 18 16 25 27 21 22 21 21 17 18 22 14 14 6 7 16 20 12 17 26 23 19 19 22 33 34 33
7 6 5 4 4 8 18 35 20 17 16 17 20 26 24 23 26 23 15 16 16 13 8 7 10 14 14 11 15 26 24 23 18 23 36 25 2 6
5 8 6 6 9 24 31 20 15 14 17 21 20 25 22 23 25 15 15 13 12 8 9 10 13 12 10 9 17 25 25 19 21 37 22 2 24 13
10 5 5 12 31 27 18 14 15 16 20 18 19 23 23 22 23 12 11 8 8 10 11 12 12 10 9 7 14 24 20 35 17 28 13 14 -9 23
5 6 12 21 25 17 14 15 15 15 15 16 18 21 23 23 21 13 10 11 12 14 12 10 10 9 8 8 10 24 24 28 23 27 -2 3 6 19
6 12 24 29 18 14 13 12 15 15 15 16 18 21 24 20 17 14 13 14 15 14 12 11 11 9 8 6 10 20 25 23 17 15 11 3 9 7
13 27 29 17 13 12 11 15 16 14 13 15 17 20 21 22 20 17 13 11 12 13 11 11 12 10 7 8 9 11 35 33 6 10 31 2 10 11
30 28 14 11 10 12 16 15 14 13 12 13 14 17 21 24 22 17 14 15 14 13 14 13 14 12 9 9 10 9 34 32 1 5 4 13 15 11
22 11 9 10 13 14 12 13 13 12 10 10 11 13 15 17 14 14 14 12 11 13 14 13 13 14 11 11 11 11 14 37 16 7 5 16 7 8
11 9 10 12 12 13 15 14 14 12 10 8 9 10 11 13 13 15 13 11 11 12 13 12 12 11 12 12 12 12 17 42 16 10 4 11 10 9
9 11 15 21 26 26 21 18 17 14 12 10 9 7 6 7 8 6 9 22 16 12 13 15 16 16 15 15 18 14 16 34 13 18 8 3 11 4
Height
5731 5727 5723 5719 5718 5715 5711 5707 5705 5703 5700 5695 5689 5685 5679 5674 5668 5667 5664 5662 5660 5658 5656 5654 5653 5652 5650 5649 5649 5649 5649 5649 5649 5650 5651 5652 5655 5657
5718 5714 5710 5706 5701 5698 5694 5690 5686 5683 5681 5678 5673 5668 5663 5659 5654 5651 5647 5643 5641 5638 5637 5635 5633 5631 5630 5629 5629 5628 5628 5629 5630 5630 5631 5633 5636 5638
5704 5699 5696 5691 5686 5682 5677 5673 5668 5664 5662 5659 5653 5647 5643 5639 5635 5631 5627 5624 5620 5616 5613 5611 5609 5608 5606 5604 5604 5603 5604 5604 5605 5607 5610 5613 5615 5618
5689 5684 5680 5676 5672 5667 5662 5655 5650 5644 5641 5638 5633 5626 5621 5616 5612 5608 5604 5601 5596 5593 5589 5585 5582 5581 5580 5578 5576 5574 5574 5576 5578 5580 5583 5587 5591 5596
5674 5670 5665 5660 5655 5648 5642 5636 5630 5625 5619 5615 5611 5604 5599 5593 5589 5585 5582 5577 5572 5568 5563 5559 5555 5552 5550 5548 5546 5546 5546 5546 5547 5550 5553 5556 5561 5567
5659 5654 5648 5642 5636 5631 5625 5618 5612 5607 5600 5594 5588 5582 5576 5570 5565 5561 5558 5551 5546 5538 5532 5526 5524 5522 5516 5513 5513 5510 5510 5512 5514 5516 5520 5524 5530 5535
5641 5635 5630 5624 5617 5612 5606 5601 5594 5586 5579 5572 5566 5558 5552 5545 5538 5531 5525 5520 5514 5502 5496 5491 5486 5480 5475 5473 5471 5469 5468 5469 5472 5475 5480 5486 5492 5499
5625 5619 5613 5606 5599 5593 5586 5579 5571 5563 5556 5549 5541 5532 5523 5514 5505 5496 5486 5481 5478 5464 5453 5457 5442 5441 5436 5432 5429 5426 5426 5426 5426 5429 5436 5442 5447 5457
5608 5602 5595 5588 5581 5574 5567 5561 5551 5539 5529 5520 5513 5502 5492 5479 5470 5461 5450 5443 5438 5429 5416 5425 5413 5412 5406 5404 5399 5396 5396 5396 5396 5396 5397 5400 5406 5412
5590 5583 5576 5569 5561 5554 5548 5540 5530 5517 5504 5490 5478 5469 5456 5444 5432 5423 5419 5413 5410 5402 5392 5395 5391 5389 5386 5383 5378 5376 5375 5372 5372 5371 5371 5373 5376 5381
5573 5566 5558 5551 5541 5534 5524 5515 5506 5494 5477 5463 5448 5435 5425 5415 5404 5395 5393 5388 5388 5384 5377 5373 5374 5372 5373 5370 5362 5359 5357 5352 5351 5350 5350 5350 5353 5357
5556 5548 5538 5530 5519 5507 5496 5487 5480 5468 5453 5439 5424 5410 5399 5392 5384 5376 5372 5370 5368 5368 5362 5362 5359 5355 5362 5357 5350 5344 5339 5335 5332 5332 5332 5332 5334 5337
5537 5530 5521 5509 5498 5486 5472 5460 5449 5438 5428 5416 5407 5394 5382 5374 5367 5360 5357 5355 5353 5353 5348 5348 5349 5345 5342 5342 5339 5331 5323 5320 5318 5318 5318 5320 5322 5324
5518 5509 5499 5490 5478 5466 5452 5437 5425 5414 5404 5396 5387 5377 5368 5359 5353 5350 5346 5343 5341 5342 5341 5337 5338 5334 5332 5330 5324 5320 5311 5310 5308 5308 5310 5313 5315 5320
5500 5490 5480 5469 5457 5443 5428 5416 5406 5396 5388 5380 5371 5362 5352 5345 5342 5340 5337 5334 5334 5332 5330 5328 5327 5325 5321 5318 5315 5308 5305 5301 5299 5303 5306 5309 5312 5315
5482 5471 5459 5447 5433 5422 5413 5402 5392 5383 5375 5366 5357 5348 5340 5334 5331 5328 5328 5325 5325 5323 5319 5318 5317 5316 5314 5310 5306 5301 5297 5296 5297 5299 5303 5307 5310 5313
5464 5452 5439 5427 5416 5405 5396 5386 5377 5369 5360 5352 5344 5336 5330 5324 5321 5319 5317 5316 5315 5314 5312 5309 5308 5308 5306 5303 5301 5295 5293 5293 5295 5297 5300 5304 5308 5311
5443 5430 5419 5408 5399 5392 5383 5373 5364 5356 5348 5340 5332 5324 5319 5314 5311 5309 5307 5306 5305 5304 5303 5302 5301 5300 5299 5297 5292 5291 5288 5290 5292 5295 5298 5301 5305 5309
5422 5411 5401 5393 5385 5377 5368 5360 5352 5344 5337 5329 5322 5315 5309 5305 5302 5301 5299 5297 5297 5296 5294 5293 5292 5293 5293 5292 5289 5284 5285 5285 5289 5292 5296 5299 5303 5307
5403 5395 5387 5379 5370 5362 5355 5348 5341 5334 5326 5320 5313 5307 5302 5298 5295 5293 5291 5290 5289 5288 5286 5284 5285 5285 5285 5285 5285 5281 5280 5281 5285 5290 5293 5297 5300 5304
5388 5380 5372 5364 5356 5349 5342 5335 5329 5323 5317 5311 5305 5300 5295 5291 5288 5286 5284 5282 5281 5280 5279 5277 5277 5277 5278 5278 5279 5278 5275 5277 5281 5285 5290 5294 5298 5302
5373 5366 5358 5349 5341 5334 5329 5323 5318 5312 5307 5302 5298 5293 5288 5285 5282 5279 5276 5274 5273 5272 5271 5270 5269 5269 5270 5271 5272 5272 5272 5273 5276 5281 5286 5290 5295 5299
5359 5351 5342 5334 5326 5320 5314 5309 5305 5301 5296 5292 5288 5284 5281 5278 5274 5272 5268 5265 5264 5263 5263 5262 5261 5262 5263 5264 5265 5266 5267 5269 5273 5277 5282 5287 5292 5296